Regional Weather Roundup
Issued by NWS Sioux Falls, SD

Home | Current Version | Previous Version | Graphics & Text | Print | Product List | Glossary On
Versions: 1 2 3 4 5 6 7 8 9 10 11 12 13 14 15 16 17 18 19 20 21 22 23 24 25 26 27 28 29 30 31 32 33 34 35 36 37 38 39 40 41 42 43 44 45 46 47 48 49 50
000
ASUS43 KFSD 112310
RWRFSD

WEATHER ROUNDUP FOR SE SOUTH DAKOTA/SW MINNESOTA/NW IOWA
NATIONAL WEATHER SERVICE SIOUX FALLS SD
500 PM CST MON DEC 11 2017

NOTE: "FAIR" INDICATES FEW OR NO CLOUDS BELOW 12,000 FEET WITH NO
SIGNIFICANT WEATHER AND OR OBSTRUCTIONS TO VISIBILITY.


SDZ038>040-050-052>070-120000-
SOUTHEAST SOUTH DAKOTA

CITY           SKY/WX    TMP DP  RH WIND       PRES   REMARKS
BROOKINGS      MOCLDY    25  19  78 N20G25    30.19R WCI  11
CHAMBERLAIN    CLOUDY    39  30  69 NW15G23   30.29R
HURON          CLEAR     28  20  71 N15       30.28R WCI  16
MADISON        MOCLDY    27  25  93 N18G32    30.20R WCI  13
MITCHELL       CLEAR     32  25  75 N16       30.26R WCI  21
SIOUX FALLS    PTCLDY    31  24  75 N18       30.18R WCI  19
WINNER         CLOUDY    39  31  72 N18G28    30.31R
YANKTON        CLEAR     34  27  75 NW21      30.22R WCI  22
$$

MNZ071-072-080-081-089-090-097-098-120000-
SOUTHWEST MINNESOTA

CITY           SKY/WX    TMP DP  RH WIND       PRES   REMARKS
FAIRMONT       CLOUDY    28  23  81 NW26G35   30.06R WCI  13
JACKSON        CLOUDY    25  19  80 MISG      30.10R
LUVERNE        PTCLDY    28  19  69 N17G23    30.15R WCI  16
MARSHALL       PTCLDY    21  16  79 N20G35    30.18R WCI   6
MONTEVIDEO     PTCLDY    19  14  79 N22G35    30.21R WCI   3
PIPESTONE      PTCLDY    25  18  74 N20G35    30.15R WCI  11
REDWOOD FALLS  CLOUDY    25  15  66 NW20G31   30.13R WCI  11
TRACY          MOCLDY    24  19  80 NW26G38   30.15R WCI   7
WINDOM           N/A     25  10  54 NW23G37   30.11R WCI  10
WORTHINGTON    CLOUDY    24  19  81 NW28G35   30.12R WCI   7
$$

IAZ001>003-012>014-020>022-031-032-NEZ013-014-SDZ071-120000-
NORTHWEST IOWA

CITY           SKY/WX    TMP DP  RH WIND       PRES   REMARKS
CHEROKEE       CLOUDY    32  24  72 N15G28    30.13R WCI  21
DENISON        CLOUDY    36  27  69 N20G38    30.12R
ESTHERVILLE    CLOUDY    26  22  84 NW32      30.09R WCI   9
LE MARS        PTCLDY    34  25  69 NW21G28   30.16R WCI  22
ORANGE CITY    MOCLDY    34  27  75 NW20G28   30.14R WCI  22
SHELDON        MOCLDY    28  23  80 N25G31    30.11R WCI  14
SIOUX CITY     PTCLDY    36  25  64 NW28G39   30.15R
SPENCER        CLOUDY    27  20  75 N24G32    30.11R WCI  12
STORM LAKE     CLOUDY    30  23  74 N23G33    30.10R WCI  17
$$

ABBREVIATIONS USED IN REMARKS
   TC - TEMPERATURE IN CELSIUS
  WCI - WIND CHILL INDEX
   HX - HEAT INDEX
  VSB - VISIBILITY





USA.gov is the U.S. government's official web portal to all federal, state and local government web resources and services.